World > North America > United States > Utah

Fillmore, Utah Regional Weather

Lat: 38.97N, Lon: 112.34W
Wx Zone: UTZ015Web Search

Pass this page to a friend. Tell them to point their camera at the QR Code near the bottom of this page.

Feedback


°F Click to change Fillmore hourly weather to Imperial units.Click to change Fillmore hourly weather to Metric units. °C
Fillmore Weather Map
UTC Time: 4/11/2021, 03:25
Your Time:

Fillmore, UT Regional Weather

Expires:202104110400;;362421
ASUS45 KSLC 110310
RWRUT 

UTAH REGIONAL WEATHER ROUNDUP
NATIONAL WEATHER SERVICE SALT LAKE CITY UT
900 PM MDT SAT APR 10 2021


UTZ013>016-019>022-027-110400-

SOUTHERN UTAH
  
CITY           SKY/WX    TMP DP  RH WIND       PRES   REMARKS
BRYCE CANYON   CLEAR     44   4  19 NW8       29.98R                  
CEDAR CITY     CLEAR     55   7  14 SW10      29.90R                  
MILFORD        CLEAR     50  12  21 N6        29.84R                  
PANGUITCH      CLEAR     50   7  17 NE3       29.96R                  
ST GEORGE      CLEAR     72  12  10 SW3       29.77S                  
HANKSVILLE     CLEAR     64   9  11 MISG      29.82R                  
KANAB          CLEAR     57   3  11 CALM      29.91R                  
BLANDING         N/A     54   5  13 N6        29.95R                  

$$

REGIONAL REPORTS     COLORADO/ARIZONA
  
CITY           SKY/WX    TMP DP  RH WIND       PRES   REMARKS
CRAIG, CO      CLEAR     44  12  27 SW13      29.80S                  
GRAND JUNCTION PTCLDY    61   6  11 SW6       29.78S                  
RIFLE, CO      PTCLDY    56   8  14 S9        29.81S                  
MONTROSE, CO   CLEAR     53   6  15 S5        29.87R                  
CORTEZ, CO     CLEAR     47   5  18 CALM      29.89R                  
COLORADO CITY    N/A     57  18  21 E6        29.91R                  
PAGE, AZ       CLEAR     72  -3   5 W10G17    29.80R                  
GRAND CANYON   CLEAR     42   9  25 CALM      29.97R                  
KINGMAN, AZ    CLEAR     67   8  10 S7        29.83R                  
FLAGSTAFF, AZ  CLEAR     52  13  21 SW8       30.00R                  

$$

REGIONAL REPORTS    NEVADA/IDAHO/WYOMING
  
CITY           SKY/WX    TMP DP  RH WIND       PRES   REMARKS
LAS VEGAS, NV  PTCLDY    81   1   4 W8        29.74R                  
ELY, NY        CLEAR     47   7  19 W8        29.95R                  
ELKO, NV       CLEAR     57  11  16 W3        29.90R                  
POCATELLO, ID  CLEAR     50  18  28 SW25G35   29.80R                  
BURLEY, ID     CLEAR     50  18  28 W20G32    29.83R                  
EVANSTON, WY   CLEAR     44  11  26 SW17      29.85F                  
ROCK SPRINGS,  PTCLDY    47   9  21 W18       29.82S                  
KEMMERER, WY   CLEAR     45  10  24 SW26G35   29.81F                  

$$
  

SKY/WX - Weather  TMP - Temperature  DP - Dew Point  RH - Relative Humidity
WIND - Wind Direction/Speed PRES - Barometric Pressure VSB - Visibility
WCI - Wind Chill Index E13G22 Wind - East Wind 13 mph/Gusts of 22 mph